Tracking 28052 objects as of 25-Sep-2023
HD Live streaming from Space Station
objects crossing your sky now

STARLINK-2039

Track STARLINK-2039 now!
10-day predictions
STARLINK-2039 is classified as:


NORAD ID: 47655
Int'l Code: 2021-012AM
Perigee: 553.6 km
Apogee: 555.2 km
Inclination: 53.1 °
Period: 95.6 minutes
Semi major axis: 6925 km
RCS: Unknown
Launch date: February 16, 2021
Source: United States (US)
Launch site: AIR FORCE EASTERN TEST RANGE (AFETR)
Your satellite tracking list
Your tracking list is empty




NASA's NSSDC Master Catalog

Two Line Element Set (TLE):
1 47655U 21012AM  23267.93574277  .00022487  00000-0  15243-2 0  9997
2 47655  53.0543 137.3062 0001152 102.3772 257.7346 15.06385096144828
Source of the keplerian elements: AFSPC